Location: Newark
(34.6283°N, 36.0776°E)
Time: 09:30:52
(UTC+00:00)

Transit 2A Rocket - Visible Passes

Search period start: 22 October 2019 00:00
Search period end: 01 November 2019 00:00
Orbit: 594 x 909 km, 66.7° (Epoch: 21 October)

Date Brightness Start Highest point End Pass type
(mag) Time Alt. Az. Time Alt. Az. Time Alt. Az.
22 Oct 7.7 00:28:25 14° E 00:28:25 14° E 00:29:50 10° ENE visible
22 Oct 5.0 02:08:24 48° W 02:09:06 51° WNW 02:13:47 10° NNE visible
23 Oct 5.7 01:28:10 44° NNE 01:28:10 44° NNE 01:31:24 10° NNE visible
23 Oct 6.7 03:08:09 10° WNW 03:09:35 11° NW 03:10:59 10° NNW visible
24 Oct 7.4 00:47:42 16° NE 00:47:42 16° NE 00:48:43 10° NE visible
24 Oct 6.3 02:27:40 19° NW 02:27:40 19° NW 02:30:15 10° N visible
25 Oct 6.7 01:47:00 18° N 01:47:00 18° N 01:48:26 10° N visible
26 Oct 7.5 01:06:12 10° NNE 01:06:12 10° NNE 01:06:15 10° NNE visible
